Location: Oakland
(42.5811°N, 93.4433°W)
Time: 04:54:38
(UTC+00:00)

Daily predictions for brighter satellites

Satellite Brightness Start Highest point End
(mag) Time Altitude Azimuth Time Altitude Azimuth Time Altitude Azimuth
Cosmos 1420 Rocket 4.1 02:18:47 10° S 02:23:47 53° ESE 02:28:51 10° NNE
Cosmos 1190 Rocket 4.1 02:18:47 10° NNW 02:24:07 83° ENE 02:29:26 10° SSE
Helios 1A Rocket 4.2 02:20:21 10° S 02:24:12 40° W 02:28:03 10° NNW
Cosmos 1766 3.6 02:22:34 10° NNW 02:26:24 67° W 02:30:14 10° S
MOS 1 4.4 02:22:07 10° SSE 02:27:49 89° ENE 02:33:34 10° NNW
Genesis I 3.3 02:24:43 10° SSW 02:28:27 54° ESE 02:32:17 10° NE
Landsat 7 4.2 02:29:57 10° SE 02:34:30 48° ENE 02:39:06 10° N
USA 186 4.2 02:33:20 10° SW 02:35:18 18° W 02:37:23 10° NW
NOSS 3-2 (A) 3.9 02:30:59 10° SW 02:36:29 64° NW 02:42:51 10° NNE
NOSS 3-2 (C) 3.3 02:31:39 10° SSW 02:37:09 79° ESE 02:43:28 10° NE
Cosmos 1470 3.0 02:33:38 10° N 02:37:33 52° E 02:41:24 10° SSE
SJ-6B 4.3 02:34:06 10° SSW 02:37:55 38° W 02:41:45 10° NNW
SPOT 3 Rocket 3.8 02:34:47 10° SSE 02:39:50 57° ENE 02:44:55 10° N
ARIANE 5 R/B 4.2 02:36:41 10° ESE 02:40:02 21° ENE 02:43:25 10° NNE
ATLAS 3B R/B 4.0 02:40:12 10° SE 02:43:53 16° ESE 02:47:37 10° ENE
Cosmos 1674 4.3 02:41:23 10° SE 02:43:56 18° E 02:46:33 10° NE
CZ-2C R/B 4.2 02:41:41 10° NNE 02:46:15 43° E 02:50:47 10° S
Cosmos 1315 Rocket 3.0 02:45:19 10° N 02:49:26 62° ENE 02:53:29 10° SSE
SL-16 R/B 2.2 02:45:17 10° SSW 02:50:53 69° ESE 02:56:33 10° NNE
Cosmos 2360 Rocket 3.0 02:47:26 10° SSE 02:52:19 31° ESE 02:57:13 10° NE
OBJECT-B 3.6 02:50:41 10° SW 02:52:51 17° W 02:55:02 10° NW
Cosmos 2322 Rocket 2.3 02:48:02 10° S 02:53:35 56° ESE 02:59:10 10° NNE
Cosmos 676 Rocket 4.1 02:51:29 10° NNW 02:56:51 86° WSW 03:02:11 10° SSE
Cosmos 1954 Rocket 4.1 02:52:17 10° NNW 02:57:39 82° WSW 03:02:57 10° SSE
Ariane Rocket 3.8 02:52:58 10° S 02:57:55 51° W 03:02:53 10° NNW
Okean 1 Rocket 3.1 02:55:10 10° N 02:59:32 87° W 03:03:56 10° S
Cosmos 2227 4.3 02:54:03 10° NNW 02:59:41 75° WSW 03:05:12 10° SSE
Cosmos 1726 2.1 02:56:55 10° N 03:00:34 83° W 03:04:11 10° S
Cosmos 1455 Rocket 4.1 02:58:23 10° NNE 03:02:22 31° ENE 03:05:24 15° SE
Meteor 1-21 4.3 02:57:06 10° S 03:02:47 86° W 03:08:27 10° N
Cosmos 1378 Rocket 4.5 03:03:21 10° SSW 03:07:33 49° WNW 03:11:49 10° N
Cosmos 1758 3.2 03:04:00 10° N 03:07:59 76° E 03:11:21 14° SSE
COSMOS 2428 4.5 03:06:54 12° ESE 03:08:23 13° E 03:10:45 10° ENE
Okean 2 4.2 03:05:16 10° SSW 03:09:16 53° W 03:13:16 10° N
BREEZE-M DEB (TANK) 3.8 03:05:26 10° NW 03:09:18 31° NNE 03:11:14 11° E
USA 215 4.2 03:05:18 10° ENE 03:10:27 24° SE 03:15:34 10° S
USA 81 4.0 03:05:34 10° N 03:10:51 75° E 03:15:44 12° S
Cosmos 1908 4.3 03:09:16 10° NNE 03:12:44 30° ENE 03:14:50 18° SE
Cosmos 2237 4.3 03:07:37 10° S 03:13:11 58° ESE 03:18:46 10° NNE
Lacrosse 5 rocket 1.8 03:11:56 10° S 03:15:11 29° SE 03:18:20 10° ENE
Cosmos 1707 3.3 03:15:19 10° SSW 03:19:08 60° W 03:22:59 10° N
Cosmos 1110 Rocket 4.4 03:15:28 11° S 03:20:03 43° ESE 03:24:58 10° NNE
Cosmos 292 Rocket 4.3 03:18:15 10° SSW 03:23:02 61° WNW 03:27:49 10° NNE
Cosmos 2173 Rocket 4.3 03:17:06 10° N 03:23:22 54° ENE 03:27:59 18° SSE
CENTAUR R/B 3.7 03:17:41 10° WSW 03:23:25 48° NW 03:30:14 10° NNE
Cosmos 1844 Rocket 3.2 03:25:03 10° NNW 03:30:34 50° ENE 03:34:17 20° SE
Cosmos 1727 Rocket 4.2 03:26:16 10° SSW 03:32:35 77° W 03:38:53 10° N
FALCON 9 DEB 3.0 03:29:20 10° SW 03:32:45 90° WNW 03:36:11 10° NE
SPOT 5 3.2 03:30:02 21° SE 03:33:26 56° ENE 03:38:18 10° N
Cosmos 1953 2.4 03:31:38 10° N 03:35:42 67° E 03:37:54 26° SSE
Resurs 01 Rocket 3.3 03:34:45 10° SSW 03:38:35 29° W 03:42:27 10° NW
Cosmos 1025 Rocket 3.2 03:37:24 23° SSE 03:39:52 53° E 03:44:08 10° NNE
SL-14 R/B 4.2 03:39:12 26° SE 03:40:28 32° E 03:44:05 10° NNE
CARTOSAT-1 3.5 03:39:23 22° S 03:42:06 86° WSW 03:46:27 10° NNW
Cosmos 1452 Rocket 4.1 03:36:57 10° SSW 03:42:09 60° WNW 03:47:23 10° NNE
Cosmos 2263 Rocket 3.8 03:38:33 10° NW 03:43:20 28° WSW 03:48:05 10° SSW
USA 245 4.3 03:40:33 17° S 03:44:03 61° W 03:49:32 10° NNW
Terra 2.3 03:41:40 24° SE 03:44:12 49° ENE 03:48:47 10° N
Cosmos 1626 2.1 03:45:06 31° SSE 03:46:38 59° E 03:50:17 10° NNE
Cosmos 2333 4.4 03:45:22 18° S 03:49:27 51° ESE 03:55:00 10° NE
Lacrosse 5 2.5 03:45:30 10° WNW 03:50:17 43° SW 03:52:53 24° S
Cosmos 1975 Rocket 3.5 03:46:46 11° SSW 03:50:48 60° W 03:55:09 10° N
Cosmos 1802 Rocket 4.1 03:45:06 10° N 03:51:22 70° E 03:55:19 24° SSE
SPOT 1/Viking Rocket 4.3 03:47:31 14° S 03:51:42 47° W 03:56:40 10° NNW
Cosmos 1850 Rocket 4.2 03:48:43 10° NNW 03:54:00 70° WSW 03:57:07 24° S
Cosmos 1461 2.9 03:50:29 10° NNW 03:54:42 70° NE 03:56:19 34° SE
Geosat 4.1 03:55:46 26° SSE 03:58:34 71° WSW 04:03:36 10° NNW
Cosmos 2333 Rocket 2.4 03:56:42 23° S 04:00:03 51° ESE 04:05:35 10° NE
BREEZE-M DEB (TANK) 4.4 03:43:52 10° SW 04:00:06 44° SSE 04:04:36 10° ENE
Spot 2 Rocket 4.0 03:58:37 20° S 04:02:00 53° W 04:06:58 10° NNW
ERS-1 Rocket 3.1 04:04:36 27° S 04:07:24 71° WSW 04:12:28 10° NNW
Cosmos 1331 Rocket 4.1 04:02:33 12° SSW 04:07:28 79° WNW 04:12:46 10° NNE
Cosmos 1459 Rocket 4.1 04:02:42 10° NNW 04:08:44 71° W 04:12:40 23° S
ATLAS CENTAUR R/B 2.5 04:04:48 10° NNW 04:08:54 40° NE 04:10:56 25° ESE
SL-8 R/B 3.9 04:06:07 10° WNW 04:10:55 71° NNE 04:13:41 25° ESE
Cosmos 2219 Rocket 2.3 04:11:14 28° S 04:14:04 57° ESE 04:19:38 10° NNE
Cosmos 1844 3.6 04:09:40 10° NNW 04:15:16 89° WSW 04:17:50 34° SSE
ARIANE 5 R/B 3.7 04:13:45 21° SSW 04:16:13 38° W 04:20:25 10° NNW
CZ-4B DEB 4.1 04:17:32 69° S 04:17:51 83° WSW 04:21:02 10° NNW
Cosmos 389 Rocket 4.4 04:16:05 10° NNE 04:18:30 18° ENE 04:18:37 18° ENE
Meteor 2-10 Rocket 4.3 04:16:02 10° N 04:20:42 35° ENE 04:22:19 28° ESE
Meteor 1-24 Rocket 3.8 04:19:34 35° SSE 04:21:28 53° E 04:26:45 10° NNE
Cosmos 1455 4.5 04:19:50 10° NE 04:21:38 13° ENE 04:22:07 13° ENE
Cosmos 1302 Rocket 3.9 04:23:10 30° S 04:25:47 77° ESE 04:31:03 10° NNE
Uosat 12 SS-18 rocket 4.3 04:25:29 44° SE 04:25:53 45° ESE 04:30:27 10° NE
Cosmos 2061 Rocket 4.1 04:19:43 10° N 04:26:11 83° W 04:29:34 30° S
Aureole 1 Rocket 4.4 04:20:24 10° NNW 04:26:20 64° WSW 04:30:26 27° S
ATLAS CENTAUR R/B 4.4 04:26:30 18° ESE 04:26:49 18° E 04:32:01 10° ENE
Cosmos 2237 Rocket 3.5 04:29:30 22° ESE 04:29:42 22° E 04:33:54 10° NE
Cosmos 1300 2.5 04:25:55 10° N 04:29:44 82° E 04:30:18 63° SSE
Cosmos 1864 Rocket 4.5 04:25:05 10° N 04:31:18 79° W 04:34:21 32° S
ATLAS 3B R/B 2.5 04:27:01 10° SSW 04:33:33 89° SE 04:40:19 10° NE
H-2A R/B 3.7 04:29:32 10° N 04:33:36 64° WNW 04:35:12 34° SW
Cosmos 1544 Rocket 4.5 04:31:02 10° NNW 04:35:15 42° W 04:37:03 28° SW
Cosmos 2360 Rocket 3.5 04:30:54 10° SW 04:36:10 40° WNW 04:41:28 10° N
Cosmos 2123 Rocket 4.3 04:32:40 22° SSW 04:36:55 67° W 04:43:14 10° N
Cosmos 2322 Rocket 4.4 04:33:24 10° WSW 04:38:00 25° NW 04:42:38 10° N
Cosmos 1606 Rocket 4.3 04:36:01 10° N 04:40:12 38° ENE 04:40:57 35° E
Cosmos 1346 Rocket 3.1 04:41:09 48° E 04:41:13 48° E 04:45:06 10° NNE
ALOS 2 4.3 04:41:22 19° E 04:42:32 21° ENE 04:45:49 10° NNE
Cosmos 1340 3.9 04:45:20 27° WSW 04:46:44 37° WNW 04:50:16 10° N
Cosmos 2233 Rocket 3.9 04:42:45 10° N 04:48:57 89° E 04:51:23 40° S
Cosmos 405 3.8 04:47:20 10° NNW 04:50:36 40° W 04:50:46 40° WSW
Cosmos 1447 Rocket 4.4 04:48:52 39° S 04:51:21 76° E 04:57:33 10° N
COSMOS 2428 2.7 04:48:51 31° SSW 04:51:46 89° WNW 04:57:33 10° NNE
USA 215 3.2 04:47:24 10° NE 04:53:58 89° SE 05:00:31 10° SW
Lacrosse 5 rocket 2.8 04:50:51 10° W 04:54:11 32° NW 04:57:28 10° NNE
Cosmos 2322 4.2 04:50:06 16° SW 04:54:29 59° WNW 05:00:06 10° NNE
NOSS 0 Rocket 4.1 04:57:14 42° SSE 04:58:53 54° ESE 05:04:56 10° NE
Cosmos 1486 Rocket 4.1 04:55:31 10° NNW 05:00:44 68° ENE 05:02:04 48° SE
FALCON 9 DEB 4.3 05:04:00 34° NNE 05:04:00 34° NNE 05:05:59 10° NE
Cosmos 2278 Rocket 2.8 04:58:10 10° NNW 05:03:39 48° ENE 05:05:45 33° ESE
Cosmos 968 Rocket 3.4 05:07:22 10° NNW 05:12:29 72° WSW 05:13:30 55° S
Cosmos 1844 Rocket 4.2 05:09:38 10° NW 05:14:05 24° WSW 05:15:57 21° SW
Cosmos 1992 Rocket 3.9 05:13:03 53° SSW 05:14:20 86° ESE 05:19:36 10° NNE
GEOS 3 Rocket 3.6 05:20:23 53° SSE 05:21:42 79° SW 05:27:05 10° NW
Terra 3.8 05:20:33 16° WSW 05:22:11 18° W 05:25:29 10° NW
USA 267 3.6 05:21:42 19° ESE 05:26:28 63° NE 05:32:55 10° NW
FALCON 9 DEB 4.4 05:27:30 35° NNW 05:27:33 35° NNW 05:30:29 10° NE
Cosmos 2228 3.5 05:24:00 10° NNW 05:28:16 51° W 05:28:41 49° WSW
BREEZE-M DEB (TANK) 3.9 05:26:49 10° WNW 05:29:55 42° N 05:37:45 10° ENE
Cosmos 192 4.4 05:30:24 56° ESE 05:30:38 56° ESE 05:35:28 10° NNE
Cosmos 1464 Rocket 4.0 05:26:50 10° N 05:33:13 73° E 05:35:08 47° SSE
Okean 1-7 Rocket 3.7 05:35:55 59° E 05:35:57 59° E 05:40:21 10° NNE
Meteor 2-1 Rocket 4.2 05:31:42 10° N 05:37:12 67° ENE 05:38:25 52° SE
Cosmos 1980 3.6 05:37:59 53° SSW 05:39:25 88° ESE 05:45:09 10° NNE
Cosmos 2346 Rocket 4.4 05:37:59 50° SSE 05:39:32 71° E 05:45:41 10° NNE
Cosmos 1607 4.2 05:35:17 10° NNW 05:41:42 68° NE 05:44:13 38° SE
Iridium 2 4.5 05:42:17 43° WNW 05:42:17 43° WNW 05:45:44 10° N
Cosmos 2333 Rocket 4.1 05:39:48 10° WSW 05:44:36 27° NW 05:49:24 10° N
Cosmos 1943 Rocket 4.1 05:42:07 10° N 05:46:23 22° NE 05:50:15 12° E
ATLAS CENTAUR R/B 3.1 05:44:00 10° WNW 05:47:04 24° WSW 05:47:04 24° WSW
Cosmos 389 Rocket 4.4 05:50:19 10° NW 05:52:24 22° WNW 05:52:24 22° WNW
Cosmos 2058 Rocket 3.0 05:50:08 10° NNW 05:54:34 71° W 05:54:38 71° WSW
Cosmos 1455 3.1 05:53:49 10° NNW 05:57:00 41° WNW 05:57:00 41° WNW
Cosmos 2219 Rocket 4.2 05:53:50 10° WSW 05:58:23 24° NW 06:02:58 10° N
Cosmos 1503 Rocket 4.1 05:54:36 10° NNW 05:59:57 64° WSW 06:00:38 58° SW
Meteor 1-4 Rocket 3.6 05:58:41 10° N 06:01:22 39° NE 06:01:22 39° NE
USA 32 4.3 06:00:04 10° N 06:05:15 56° E 06:06:09 49° ESE
GP-B 3.6 06:02:23 10° NNE 06:06:42 48° E 06:06:48 48° E
Cosmos 2034 Rocket 3.9 06:00:34 10° N 06:06:48 89° W 06:08:22 53° S
SL-16 R/B 2.5 06:07:45 47° SE 06:08:23 49° ESE 06:13:50 10° NE
Cosmos 2237 Rocket 2.7 06:11:17 36° WSW 06:13:19 54° WNW 06:18:51 10° NNE
Cosmos 1867 4.2 06:10:19 10° NW 06:15:23 39° WSW 06:15:26 39° WSW
Thor Agena Rocket 3.4 06:12:43 10° NNE 06:18:00 84° ESE 06:18:47 65° S
ALOS 2 3.5 06:18:46 38° W 06:18:46 38° W 06:22:43 10° NNW
NOSS 3-1 (C) 3.5 06:18:54 46° SE 06:19:10 46° ESE 06:24:51 10° NE
BREEZE-M DEB (TANK) 4.3 06:20:56 39° SSE 06:22:27 44° ESE 06:40:32 10° ENE
BREEZE M DEB (TANK) 4.2 06:22:37 42° SSE 06:23:49 46° SE 06:47:33 10° ENE
SJ 16-02 2.2 06:19:57 10° N 06:24:07 41° ENE 06:24:49 38° E
Cosmos 2369 Rocket 4.1 06:21:30 10° N 06:26:11 25° NE 06:30:50 10° ESE
SL-4 R/B 2.5 06:27:29 50° NW 06:27:46 51° NNW 06:31:21 10° NE
NOSS 2-3 (E) 4.5 06:29:03 35° E 06:29:03 35° E 06:32:29 10° NE
NOSS 3-1 (A) 4.1 06:28:32 30° ESE 06:28:43 30° ESE 06:33:47 10° NE
Tsikada Rocket 3.9 06:28:01 52° SSW 06:29:41 82° W 06:35:53 10° N
Cosmos 724 4.4 06:33:00 10° NNW 06:39:11 75° ENE 06:41:41 37° SE
Meteor 1-11 4.1 06:41:33 57° SSW 06:42:44 81° WNW 06:48:21 10° N
Meteor 1-27 4.3 06:40:18 10° N 06:45:51 67° ENE 06:47:23 46° SE
Cosmos 2297 3.7 06:40:14 10° NNW 06:45:53 78° ENE 06:47:36 46° SE
Cosmos 1953 Rocket 4.4 06:46:59 37° ESE 06:47:18 37° E 06:51:22 10° NNE
Cosmos 2278 Rocket 3.5 06:42:51 10° NW 06:47:23 25° WSW 06:47:35 25° WSW
Cosmos 1777 Rocket 4.1 06:45:36 10° NNW 06:50:46 55° WSW 06:51:14 53° SW
PSLV R/B 3.7 06:47:34 10° N 06:51:50 62° WNW 06:52:07 60° W
Cosmos 1892 3.1 06:53:15 56° ENE 06:53:15 56° ENE 06:56:48 10° NNE
Cosmos 1602 Rocket 4.2 06:55:35 43° W 06:55:54 44° WNW 07:00:13 10° N
Helios 1A 3.7 06:59:24 41° ESE 07:00:12 46° ENE 07:04:13 10° N
ATLAS CENTAUR R/B 4.1 06:56:57 20° WSW 07:01:10 60° NNW 07:15:48 10° NE
Cosmos 1758 Rocket 3.7 07:02:51 60° W 07:03:08 62° W 07:07:32 10° N
NOSS 2-3 (D) 3.3 07:08:46 81° SSW 07:08:58 88° SE 07:13:38 10° NE
USA 267 3.6 07:09:00 40° SW 07:09:38 41° SW 07:15:45 10° WNW
EO 1 Del DPAF 3.7 07:08:27 10° N 07:11:54 48° WNW 07:11:54 48° WNW
Cosmos 1356 3.9 07:13:15 57° NNE 07:13:15 57° NNE 07:16:05 10° NNE
In-Cosmos 22 Rocket 4.1 07:11:54 52° S 07:13:22 89° E 07:18:55 10° N
Aureole 3 4.2 07:15:34 10° NNW 07:18:49 39° W 07:18:49 39° W
Cosmos 990 Rocket 4.2 07:14:57 10° NNW 07:20:08 66° ENE 07:22:18 34° SE
Cosmos 540 Rocket 4.3 07:22:33 33° SE 07:23:52 40° ESE 07:28:37 10° NE
Cosmos 405 Rocket 2.6 07:24:00 70° E 07:24:00 70° E 07:27:35 10° NNE
Cosmos 1898 Rocket 4.0 07:19:20 10° NNW 07:24:30 57° ENE 07:27:17 26° SE
Cosmos 1943 3.6 07:23:13 39° SSE 07:24:49 50° ESE 07:30:15 10° NE
Cosmos-2242 3.5 07:20:52 10° NNW 07:25:05 45° W 07:25:10 45° W
NOSS 2-3 (C) 3.7 07:25:11 51° W 07:25:56 61° NW 07:30:38 10° NNE
Cosmos 1825 2.1 07:27:43 70° ESE 07:27:47 71° E 07:31:33 10° NNE
Cosmos 1937 Rocket 4.4 07:23:57 10° N 07:29:05 46° ENE 07:32:59 17° SE
Cosmos 2279 Rocket 4.0 07:23:56 10° NNW 07:30:09 70° W 07:32:20 42° SSW
Cosmos 1603 3.9 07:28:43 41° SSE 07:30:27 59° ESE 07:36:01 10° NNE
Cosmos 1943 Rocket 2.2 07:25:07 10° NNW 07:30:32 59° WSW 07:31:43 48° SSW
YAOGAN 11 4.0 07:31:42 61° SW 07:32:13 68° WSW 07:36:40 10° NNW
NPP 4.4 07:30:09 10° NNE 07:35:18 44° E 07:37:30 29° SSE
Resurs 1-4 Rocket 2.3 07:35:10 10° NNE 07:40:27 62° ESE 07:42:25 37° SSE
Meteor 2-2 Rocket 4.3 07:43:35 10° N 07:49:38 89° W 07:52:40 32° S
CZ-2D R/B 2.1 07:44:39 10° NNE 07:49:53 73° ESE 07:51:52 38° S
SL-16 R/B 3.7 07:49:37 17° W 07:52:44 27° NW 07:57:31 10° N
MOZ.5/SAFIR/RUBIN 5/SL-8 3.9 07:51:57 47° SSW 07:53:01 59° W 07:57:43 10° NNW
X-37B 0.9 07:53:27 59° NNW 07:53:39 61° N 07:56:48 10° ENE
USA 306 4.1 07:53:56 28° SE 07:54:12 28° SE 07:57:50 10° ENE
Cosmos 2221 2.4 07:50:07 10° N 07:54:27 82° E 07:55:44 44° SSE
BREEZE-M DEB (TANK) 4.3 07:53:38 16° NW 07:54:43 23° N 07:57:41 10° ENE
Cosmos 1408 3.9 07:54:41 27° WNW 07:54:44 27° WNW 07:57:56 10° NNW
NOSS 2-2 (E) 4.1 07:56:15 31° SE 07:56:25 32° ESE 07:59:38 10° NE
ADEOS II 3.0 07:52:37 10° NNE 07:57:33 40° E 08:00:27 22° SSE
Cosmos 468 Rocket 4.3 07:56:08 36° WSW 07:57:56 54° WNW 08:03:03 10° NNE
AQUA 4.2 07:53:16 10° NNE 07:57:58 55° E 07:59:56 32° SSE
USA 229 DEB 3.9 07:55:59 27° WSW 07:59:32 60° NW 08:06:17 10° NNE
USA 229 3.9 07:56:06 27° WSW 07:59:38 60° NW 08:06:24 10° NNE
ARGOS Delta rocket 4.1 07:54:47 10° N 08:00:18 83° WNW 08:02:36 37° SSW
SJ 16-02 3.1 07:59:24 10° NW 08:01:47 17° W 08:01:47 17° W
Cosmos 2098 Rocket 3.6 08:00:52 35° SSW 08:03:26 82° W 08:08:20 10° N
Exosat Rocket 4.3 08:00:49 29° SW 08:04:10 56° WNW 08:09:32 10° NNE
Nadezhda 4 Rocket 4.0 08:01:44 34° SSW 08:04:32 72° W 08:10:41 10° N
Cosmos 858 Rocket 4.5 07:59:39 10° NNW 08:04:58 88° ENE 08:08:17 23° SSE
Cosmos 2026 Rocket 4.5 08:02:46 22° SSE 08:06:49 57° E 08:13:00 10° NNE
SeaSat 1 4.2 08:03:30 10° NE 08:07:25 23° ESE 08:10:13 15° SSE
SL-4 R/B 4.2 08:05:01 10° WNW 08:07:53 21° N 08:10:38 10° NE
CREW DRAGON DEMO-1 DEB 4.0 08:08:15 29° NNW 08:08:15 29° NNW 08:10:24 10° NE
NOSS 2-2 (C) 4.0 08:08:55 31° SE 08:09:24 33° ESE 08:12:37 10° NE
Cosmos 1606 2.8 08:05:44 10° N 08:09:35 73° E 08:10:55 38° SSE
Cosmos 2369 Rocket 2.3 08:04:58 10° NNW 08:10:34 55° WSW 08:13:05 31° S
Cosmos 1437 Rocket 2.9 08:08:44 10° NNW 08:12:30 49° W 08:12:58 46° WSW
Cosmos 372 Rocket 4.4 08:07:30 10° NNW 08:12:43 63° ENE 08:17:55 10° SSE
OE (NEXTSAT) 4.3 08:12:26 51° W 08:13:11 78° NNW 08:16:38 10° ENE
Cosmos 1242 Rocket 2.4 08:10:13 10° N 08:13:49 87° E 08:14:48 46° SSE
SL-16 R/B 2.5 08:11:30 25° S 08:15:16 72° WSW 08:21:28 10° NNW
USA 290 3.2 08:15:00 33° SE 08:15:37 37° ESE 08:18:38 10° NE
Cosmos 1656 Rocket 3.6 08:10:57 10° NNW 08:16:40 77° WSW 08:20:52 18° SSE
IDEFIX/ARIANE 42P 4.0 08:12:11 10° NNE 08:16:51 32° E 08:20:56 13° SSE
Cosmos 1763 Rocket 4.4 08:15:29 25° WSW 08:17:37 37° WNW 08:22:22 10° N
Cosmos 2058 3.6 08:17:03 34° WSW 08:17:57 38° WNW 08:21:48 10° N
Cosmos 2263 4.2 08:12:20 10° NNW 08:17:58 66° WSW 08:21:30 23° S
NOSS 3-1 (A) 4.0 08:15:57 21° WSW 08:19:15 44° NW 08:25:17 10° NNE
GPS 2-04 Rocket1 4.4 08:23:33 18° SSE 08:23:33 18° SSE 08:25:34 10° ESE
USA 281 4.2 08:17:07 10° SE 08:23:20 48° ENE 08:29:35 10° NNW
Cosmos 1437 2.6 08:23:04 10° N 08:25:51 66° E 08:26:23 50° SE
Meteor 2-15 Rocket 4.5 08:20:07 10° N 08:26:19 82° E 08:31:32 15° S
Meteor 2-15 4.4 08:23:05 10° NNW 08:29:14 76° W 08:33:32 20° S
ATLAS 5 CENTAUR R/B 1.7 08:29:31 33° S 08:31:00 55° ESE 08:35:11 10° NE
DELTA 2 R/B (1) 3.7 08:29:13 27° SW 08:32:03 55° SSE 08:37:27 10° E
Cosmos 1932 4.4 08:28:38 10° NW 08:34:46 63° WSW 08:40:51 10° SSE
USA 307 3.1 08:34:52 33° SSW 08:36:33 59° SE 08:40:44 10° ENE
Cosmos 1627 Rocket 4.5 08:33:20 23° SSW 08:37:28 81° W 08:43:52 10° N
Cosmos 1633 2.7 08:37:09 38° SW 08:38:09 54° W 08:41:37 10° N
Landsat 4 3.6 08:35:28 10° NNE 08:39:16 87° WNW 08:40:58 31° SSW
Aureole 3 Rocket 3.2 08:36:20 10° NNW 08:40:06 57° W 08:42:55 24° SSW
Helios 1B rocket 3.1 08:36:57 10° N 08:40:47 40° WNW 08:42:26 27° WSW
Cosmos 1092 Rocket 4.1 08:38:56 24° SSW 08:42:40 61° W 08:48:45 10° N
ADEOS Rocket 3.4 08:35:26 10° SSE 08:42:56 81° WSW 08:49:48 10° NNW
Cosmos 2292 Rocket 3.3 08:42:37 23° SSE 08:44:15 49° E 08:47:07 10° NNE
Meteor 2-3 Rocket 3.8 08:44:04 17° S 08:48:27 74° E 08:54:02 10° NNE
IRS-1D 3.5 08:44:07 10° NNE 08:49:18 89° WNW 08:52:49 20° SSW
USA 308 2.8 08:50:01 27° SW 08:52:15 78° SE 08:56:31 10° NE
CBERS-1 4.1 08:47:57 10° NNE 08:53:07 80° ESE 08:57:05 17° S
Alouette 2 Rocket 4.5 08:54:24 10° N 08:57:48 41° ENE 09:01:39 10° SSE
Cosmos 1782 3.5 08:55:28 10° N 08:59:24 54° E 09:03:19 10° SSE
CZ-4C R/B 3.3 08:57:49 10° SSE 09:01:16 68° ENE 09:04:43 10° N
Cosmos 921 Rocket 4.1 09:01:07 19° WSW 09:03:20 30° WNW 09:07:03 10° N
ASTEX 1 3.8 08:58:27 10° SSE 09:03:21 65° E 09:08:15 10° N
MSX 4.2 08:58:49 10° NNE 09:04:33 64° ESE 09:10:15 10° S
Lacrosse 4 Rocket 1.3 09:02:06 10° NNW 09:06:13 87° ENE 09:10:15 10° SSE
Meteor 1-26 Rocket 4.4 09:01:15 10° N 09:07:07 88° E 09:13:06 10° S
NOSS 2-2 (D) 3.4 09:05:19 22° WSW 09:07:17 51° NW 09:10:51 10° NNE
USA 305 3.0 09:08:39 18° WSW 09:11:43 70° NW 09:15:58 10° NE
BREEZE-M DEB (TANK) 3.7 09:10:08 10° NW 09:12:09 26° NNE 09:14:34 10° E
Cosmos 1812 4.3 09:10:50 10° N 09:14:23 35° ENE 09:17:56 10° SE
Cosmos 2298 Rocket 4.0 09:10:19 10° NNW 09:15:41 86° WSW 09:21:01 10° SSE
Cosmos 1933 3.6 09:13:05 10° NNW 09:17:02 49° W 09:20:31 13° SSW
Resurs 1-4 Rocket 3.8 09:16:07 10° NNW 09:19:46 19° WNW 09:23:25 10° WSW
Cosmos 1271 Rocket 3.3 09:16:56 10° N 09:20:37 57° ENE 09:24:17 10° SSE
Cosmos 2151 4.1 09:21:57 16° SW 09:24:35 28° WNW 09:28:15 10° NNW
Cosmos 2150 Rocket 4.0 09:23:16 10° NNW 09:28:27 71° WSW 09:33:40 10° S
CZ-2D R/B 4.0 09:26:16 10° NNW 09:29:19 16° WNW 09:32:23 10° W
X-37B 1.2 09:27:21 10° WNW 09:30:30 59° N 09:33:38 10° E
ERBS 3.1 09:29:30 13° SSW 09:32:05 39° SE 09:35:08 10° ENE
USA 306 3.5 09:30:00 11° WSW 09:33:56 50° NNW 09:38:05 10° NE
ADEOS II 3.3 09:32:40 10° N 09:37:03 27° WNW 09:41:23 10° WSW
CZ-2D R/B 3.8 09:33:04 10° NNE 09:37:16 66° E 09:41:20 10° S
NOSS 5 (C) 4.4 09:36:26 10° NW 09:39:37 69° SW 09:43:39 10° SSE
CZ-2C R/B 3.4 09:35:20 10° NNE 09:40:08 46° E 09:44:46 10° S
Cosmos 1553 Rocket 4.3 09:34:09 10° NNW 09:40:11 49° W 09:46:05 10° SSW
Cosmos 1125 Rocket 3.5 09:39:15 10° NNW 09:44:27 63° WSW 09:49:38 10° S
S3M 4.0 09:38:38 10° NNW 09:44:44 67° W 09:50:52 10° S
SeaSat 1 3.0 09:40:22 10° NNE 09:45:06 48° WNW 09:49:50 10° SW
ARIANE 5 R/B 2.5 09:43:11 10° N 09:48:11 72° WNW 09:53:09 10° SSW
SL-4 R/B 4.1 09:45:26 10° NW 09:48:19 22° NNE 09:51:06 10° ENE
Cosmos 1328 Rocket 3.7 09:46:23 10° NNW 09:50:39 57° W 09:54:57 10° S
Cosmos 1862 3.3 09:46:58 10° S 09:50:59 80° W 09:55:03 10° N
SL-08 R/B 3.3 09:46:55 10° S 09:51:32 69° WSW 09:56:15 10° NNW
Cosmos 1656 4.4 09:46:48 10° NNW 09:52:28 61° ENE 09:58:04 10° SE
Lacrosse 5 rocket 3.8 09:52:06 10° NNW 09:55:06 24° NNE 09:58:11 10° E
IDEFIX/ARIANE 42P 3.5 09:51:44 10° N 09:56:24 33° WNW 10:01:01 10° SW
Meteor 2-6 Rocket 4.3 09:51:39 10° NNW 09:57:35 79° W 10:03:20 10° S
GPS 2-04 Rocket1 3.7 09:58:11 10° WSW 10:01:34 28° S 10:04:49 10° ESE
CZ-4B R/B 3.8 09:57:16 10° N 10:02:27 56° WNW 10:07:32 10° SSW
FALCON 9 DEB 3.2 09:59:22 10° WNW 10:02:41 52° SW 10:05:59 10° SE
deb Kosmos-1763 4.2 09:59:58 10° SSW 10:03:28 71° ESE 10:06:59 10° NNE
USA 281 3.8 10:02:04 10° SSW 10:07:56 34° WSW 10:13:51 10° NW
